Volver al catálogo

KOREASAT 5

ActivoComunicacionesGEO
NORAD 29349·PAYLOAD·🇰🇷 South Korea

Lanzado Aug 22, 2006 desde Sea Launch Platform

Loading…

TLE

ActualizadoSource: Space-Track

Época: Sep 14, 2026, 14:20 UTC

1 29349U 06034A   26257.59754778 -.00000365  00000-0  00000-0 0  9999
2 29349   2.0091  81.7372 0001766 140.2002  99.8223  1.00272562 42215

Sigue KOREASAT 5 en tiempo real con AllMySat

Download on the App Store